[[{"header":{"parameterUnit":"m.s-1","parameterCategory":1,"la1":30.2991,"la2":30.254,"lo1":-89.0895,"lo2":-89.0444,"dy":0.0017,"dx":0.0017,"nx":28,"ny":28,"refTime":"2025-07-12T09:00:00:Z","depth":0,"parameterNumber":2,"parameterNumberName":"U-component_of_WINDS"},"data":[0,0,0,0,0,0,0,0,0,0,0,0,0,0,0,0,0,0,0,0,0,0,0,0,0,0,0,0,0,0,0,0,0,0,0,0,0,0,0,0,0,0,0,0,0,0,0,0,0,0,0,0,0,0,0,0,0,0,1.5155,1.5154,0,1.5128,1.5127,1.5127,1.5085,1.5084,1.5084,1.5083,1.5055,1.5055,1.5055,0,0,0,0,0,0,0,0,0,0,0,0,0,1.5168,1.5168,1.5155,1.5154,1.5154,1.5128,1.5127,1.5127,1.5085,1.5084,1.5083,1.5083,1.5055,1.5055,1.5055,0,0,0,0,0,0,0,0,0,0,0,0,0,1.5154,1.5168,1.5155,1.513,1.5127,1.5128,1.5127,1.5127,1.5085,1.5084,1.5083,1.5082,1.5055,1.5055,1.5055,1.5077,0,0,1.5055,1.5055,0,0,0,0,0,0,0,0,1.5155,1.5154,1.5134,1.5132,1.5129,1.5109,1.5122,1.511,1.5086,1.5101,1.5083,1.5082,1.5074,1.5072,1.507,1.5076,1.5075,1.5055,1.5055,1.5055,1.5055,0,0,0,0,0,0,0,1.5156,1.5154,1.5144,1.5134,1.5131,1.512,1.5116,1.5119,1.5094,1.51,1.5097,1.5094,1.5072,1.507,1.5069,1.5074,1.5055,1.5055,1.5055,1.5055,1.5094,1.5095,0,0,0,0,0,0,1.5161,1.5156,1.5145,1.5143,1.5139,1.512,1.5117,1.5116,1.5094,1.509,1.5095,1.5092,1.507,1.5069,1.5067,1.5089,1.5055,1.5055,1.5055,1.5093,1.5095,1.5096,0,0,0,0,0,0,1.5161,1.516,1.5146,1.5148,1.5146,1.5121,1.5121,1.5116,1.5114,1.5091,1.5086,1.5097,1.5069,1.5068,1.5074,1.5088,1.5055,1.5055,1.5092,1.5094,1.5095,1.5135,0,0,0,0,0,0,1.5162,1.5161,1.5169,1.5149,1.5146,1.5154,1.5122,1.5117,1.5114,1.511,1.5091,1.5087,1.5068,1.5075,1.5074,1.5087,1.5055,1.5091,1.5093,1.5095,1.5133,1.5138,1.5143,0,0,0,0,0,1.5162,1.5182,1.517,1.5169,1.5156,1.5155,1.5153,1.5131,1.5115,1.5123,1.5108,1.5088,1.5087,1.5076,1.5075,1.5088,1.509,1.5092,1.5095,1.513,1.5137,1.5143,0,0,0,0,0,0,1.5205,1.5179,1.5165,1.5179,1.517,1.5148,1.5157,1.5139,1.5134,1.513,1.5103,1.5099,1.5109,1.51,1.5088,1.5107,1.5085,1.5088,1.5113,1.5119,1.5124,1.5125,1.5055,0,0,0,0,0,1.5217,1.5218,1.5195,1.521,1.5205,1.5182,1.5181,1.5165,1.5153,1.5149,1.5134,1.5124,1.5121,1.512,1.5116,1.5132,1.5126,1.514,1.5145,1.515,1.5151,1.5156,1.5162,1.5104,1.5104,1.5104,0,0,1.5239,1.5225,1.5228,1.5218,1.5208,1.5209,1.5179,1.5182,1.5182,1.5149,1.5154,1.5143,1.513,1.514,1.5144,1.5132,1.5166,1.5153,1.5156,1.5156,1.5159,1.5165,1.517,1.5105,1.5105,1.5105,0,0,1.5281,1.5272,1.5281,1.5272,1.5258,1.5242,1.5244,1.5225,1.5216,1.522,1.5195,1.5195,1.5191,1.5182,1.5176,1.5213,1.5193,1.5212,1.5238,1.5243,1.5248,1.5252,1.5262,1.5267,1.5215,1.5215,1.5215,0,1.5311,1.5312,1.5289,1.5292,1.5288,1.5258,1.5266,1.5259,1.5244,1.5241,1.5228,1.5221,1.521,1.5217,1.5225,1.5223,1.5224,1.5214,1.5249,1.5253,1.5256,1.5266,1.527,1.5217,1.5217,1.5216,1.5216,0,1.5348,1.5349,1.5359,1.5344,1.5341,1.5347,1.5324,1.5323,1.5307,1.5292,1.5296,1.5282,1.5273,1.5274,1.5259,1.5278,1.5271,1.5254,1.5231,1.5264,1.5273,1.5276,1.522,1.5219,1.5219,1.5218,0,0,1.5416,1.5388,1.5391,1.5383,1.5365,1.5364,1.5369,1.536,1.5359,1.535,1.5351,1.5348,1.5332,1.5326,1.5309,1.5314,1.534,1.5296,1.5296,1.5303,1.5357,1.5368,1.5373,1.5328,1.5329,1.5329,1.5358,0,1.5452,1.5458,1.5436,1.5447,1.5446,1.5417,1.542,1.5409,1.5395,1.5392,1.5376,1.5373,1.5354,1.5349,1.5353,1.5337,1.5351,1.5334,1.5327,1.5328,1.533,1.5378,1.539,1.5418,1.5361,1.5362,1.5362,0,1.5496,1.5487,1.5498,1.5476,1.5475,1.5478,1.5467,1.5465,1.5451,1.544,1.5433,1.5413,1.5415,1.5394,1.5394,1.5384,1.538,1.5371,1.5372,1.5369,1.5346,1.5374,1.5427,1.543,1.5368,1.5367,1.5367,0,1.5541,1.5533,1.5537,1.5531,1.5507,1.551,1.55,1.5484,1.548,1.547,1.5467,1.5458,1.5453,1.5446,1.5424,1.5411,1.5426,1.5404,1.5415,1.5416,1.5419,1.5418,1.5469,1.542,1.542,1.542,1.542,0,1.5582,1.5589,1.5556,1.5559,1.5565,1.554,1.5547,1.5534,1.552,1.5519,1.5494,1.5493,1.5465,1.5461,1.5444,1.5445,1.5444,1.5434,1.5429,1.5435,1.5436,1.5431,1.5427,1.5421,1.542,1.542,1.542,0,1.5633,1.5612,1.5614,1.5591,1.5585,1.559,1.557,1.557,1.5555,1.5553,1.5551,1.5527,1.552,1.5498,1.5486,1.5475,1.5481,1.5473,1.5485,1.5482,1.5494,1.5492,1.5541,1.5545,1.5495,1.5496,1.5496,0,1.566,1.5664,1.5641,1.5638,1.5629,1.5625,1.562,1.5595,1.559,1.5573,1.5575,1.5567,1.5558,1.5549,1.553,1.552,1.551,1.5528,1.5508,1.5513,1.5507,1.5507,1.5506,1.5531,1.5532,1.5533,1.5533,0,1.5709,1.5698,1.5691,1.5681,1.5675,1.5665,1.5654,1.5654,1.5625,1.5621,1.5614,1.5608,1.5595,1.5586,1.5573,1.5561,1.5542,1.554,1.5541,1.5547,1.5553,1.5547,1.5494,1.5538,1.5538,1.5537,1.5537,1.5537,1.5747,1.5748,1.5731,1.5724,1.5713,1.5703,1.5702,1.5686,1.5679,1.5666,1.5652,1.5646,1.5629,1.561,1.56,1.5594,1.5584,1.5587,1.5587,1.5588,1.559,1.5555,1.5592,1.5592,1.5592,1.5591,1.5591,0,1.5792,1.578,1.5774,1.5758,1.5752,1.5735,1.5721,1.5717,1.5712,1.5699,1.569,1.5681,1.5672,1.5651,1.564,1.5639,1.5629,1.5636,1.5635,1.5632,1.5601,1.5599,1.5644,1.5644,1.5644,1.5644,1.5644,1.5644,1.5815,1.5816,1.5803,1.5797,1.5784,1.5778,1.5771,1.5761,1.575,1.574,1.5732,1.5719,1.5702,1.5689,1.5679,1.5673,1.5669,1.5678,1.5669,1.564,1.5635,1.563,1.5628,1.5678,1.5678,1.5701,1.5701,1.5701]},{"header":{"parameterUnit":"m.s-1","parameterCategory":1,"la1":30.2991,"la2":30.254,"lo1":-89.0895,"lo2":-89.0444,"dy":0.0017,"dx":0.0017,"nx":28,"ny":28,"refTime":"2025-07-12T09:00:00:Z","depth":0,"parameterNumber":3,"parameterNumberName":"V-component_of_WINDS"},"data":[0,0,0,0,0,0,0,0,0,0,0,0,0,0,0,0,0,0,0,0,0,0,0,0,0,0,0,0,0,0,0,0,0,0,0,0,0,0,0,0,0,0,0,0,0,0,0,0,0,0,0,0,0,0,0,0,0,0,3.1743,3.1743,0,3.1747,3.1747,3.1747,3.1704,3.1703,3.1702,3.17,3.1704,3.1705,3.1706,0,0,0,0,0,0,0,0,0,0,0,0,0,3.1697,3.1698,3.1743,3.1743,3.1743,3.1747,3.1747,3.1747,3.1704,3.1703,3.1701,3.17,3.1703,3.1705,3.1706,0,0,0,0,0,0,0,0,0,0,0,0,0,3.171,3.1698,3.1743,3.1722,3.172,3.1747,3.1747,3.1747,3.1704,3.1703,3.1701,3.1699,3.1703,3.1705,3.1706,3.1753,0,0,3.1712,3.1713,0,0,0,0,0,0,0,0,3.1709,3.1712,3.1725,3.1723,3.1721,3.1723,3.1732,3.1749,3.1705,3.171,3.17,3.1698,3.1711,3.1712,3.1717,3.1753,3.1753,3.1712,3.1713,3.1714,3.1714,0,0,0,0,0,0,0,3.1709,3.1711,3.1744,3.1725,3.1723,3.1712,3.1712,3.1735,3.1721,3.171,3.1707,3.1708,3.171,3.1715,3.1717,3.1753,3.1712,3.1713,3.1715,3.1715,3.1825,3.1827,0,0,0,0,0,0,3.1711,3.1711,3.1744,3.1744,3.1711,3.1714,3.1714,3.1724,3.172,3.1718,3.1709,3.1706,3.1713,3.1715,3.1717,3.1769,3.1714,3.1715,3.1716,3.1823,3.1825,3.1827,0,0,0,0,0,0,3.171,3.1714,3.1744,3.1727,3.173,3.1717,3.1728,3.1725,3.173,3.172,3.1717,3.1717,3.1712,3.1714,3.1744,3.1769,3.1716,3.1718,3.1821,3.1824,3.1826,3.1875,0,0,0,0,0,0,3.1709,3.1714,3.1732,3.1728,3.1731,3.1771,3.173,3.1727,3.1734,3.1729,3.1727,3.1725,3.1711,3.1741,3.1745,3.177,3.1719,3.1819,3.1822,3.1826,3.1871,3.1879,3.1886,0,0,0,0,0,3.1707,3.1746,3.1733,3.1737,3.1753,3.1773,3.1775,3.1758,3.1736,3.1753,3.1746,3.1725,3.1766,3.1745,3.1749,3.1775,3.1817,3.1821,3.1825,3.1868,3.1878,3.1886,0,0,0,0,0,0,3.1753,3.1745,3.173,3.1769,3.1772,3.1766,3.1787,3.1769,3.1778,3.1774,3.1753,3.1752,3.1785,3.1783,3.176,3.1818,3.1787,3.1793,3.1818,3.1827,3.1835,3.1834,3.1721,0,0,0,0,0,3.1768,3.1785,3.1777,3.1811,3.1813,3.18,3.1808,3.1795,3.1797,3.1798,3.1794,3.1796,3.1809,3.1819,3.183,3.1871,3.1869,3.1891,3.1898,3.1905,3.1909,3.1929,3.1938,3.1841,3.1841,3.1841,0,0,3.1798,3.1795,3.1808,3.182,3.1821,3.1838,3.1801,3.1822,3.1834,3.1801,3.1828,3.1825,3.1827,3.1861,3.1877,3.1861,3.1935,3.191,3.1915,3.1916,3.1934,3.1943,3.1951,3.1844,3.1843,3.1843,0,0,3.1861,3.1862,3.189,3.1891,3.1893,3.1884,3.1891,3.1887,3.1884,3.1911,3.1886,3.19,3.1924,3.1925,3.1929,3.1993,3.1973,3.1998,3.2036,3.2056,3.2063,3.207,3.2091,3.2099,3.2002,3.2002,3.2003,0,3.1899,3.1924,3.1907,3.1928,3.1934,3.1905,3.1932,3.1935,3.194,3.1945,3.1927,3.1955,3.1954,3.1988,3.2004,3.2009,3.2015,3.1997,3.2064,3.207,3.2076,3.2096,3.2104,3.2005,3.2005,3.2005,3.2004,0,3.1969,3.1987,3.2009,3.2015,3.2023,3.2048,3.2033,3.2044,3.203,3.2023,3.205,3.2048,3.2058,3.2066,3.2053,3.2098,3.2087,3.2067,3.2035,3.2088,3.2106,3.2114,3.2009,3.2008,3.2007,3.2007,0,0,3.2061,3.2056,3.2064,3.2066,3.2065,3.2079,3.2102,3.2112,3.212,3.2125,3.2143,3.2164,3.2144,3.2149,3.2136,3.2154,3.2202,3.2131,3.213,3.2143,3.225,3.2264,3.2273,3.2189,3.2191,3.2192,3.2249,0,3.2121,3.216,3.2144,3.2184,3.22,3.2172,3.2192,3.2194,3.2188,3.22,3.2193,3.2207,3.2181,3.2184,3.22,3.2193,3.2223,3.2189,3.2204,3.2205,3.2203,3.2282,3.2297,3.2351,3.2256,3.2257,3.2258,0,3.2197,3.2204,3.2245,3.2241,3.2247,3.2265,3.2272,3.2284,3.2285,3.2279,3.2284,3.2267,3.2288,3.2258,3.2286,3.2264,3.2269,3.2267,3.2268,3.2268,3.2234,3.2282,3.2368,3.2376,3.2269,3.2269,3.2268,0,3.2257,3.2278,3.2304,3.2307,3.2303,3.2316,3.2315,3.2314,3.232,3.2327,3.2331,3.234,3.2344,3.2352,3.2337,3.2317,3.2367,3.2336,3.2362,3.2362,3.2372,3.2372,3.2459,3.2379,3.2379,3.2379,3.2379,0,3.2325,3.2351,3.2331,3.2347,3.2375,3.2357,3.2385,3.2381,3.2381,3.2395,3.2373,3.2387,3.2368,3.238,3.2369,3.2393,3.2396,3.2391,3.2387,3.2392,3.2392,3.2394,3.2389,3.2381,3.2381,3.238,3.238,0,3.2397,3.2385,3.2412,3.2406,3.2405,3.2425,3.242,3.2434,3.2426,3.2445,3.2448,3.2436,3.2449,3.2436,3.2448,3.2441,3.2473,3.2465,3.2473,3.247,3.2496,3.2493,3.2585,3.2596,3.2512,3.2512,3.2513,0,3.244,3.2459,3.2455,3.2463,3.2463,3.2476,3.2483,3.2466,3.2473,3.2475,3.2489,3.2501,3.2508,3.253,3.2522,3.2531,3.2522,3.2554,3.2523,3.2527,3.2521,3.2519,3.252,3.256,3.2561,3.2562,3.2562,0,3.2517,3.251,3.252,3.2528,3.2536,3.2542,3.2546,3.2553,3.2536,3.2545,3.2558,3.2564,3.2577,3.2588,3.2594,3.2593,3.2574,3.2572,3.2578,3.2582,3.2585,3.2582,3.2488,3.257,3.2569,3.2569,3.2568,3.2568,3.2574,3.2589,3.2588,3.26,3.2601,3.2605,3.2618,3.2612,3.2622,3.263,3.262,3.2636,3.2635,3.2642,3.2643,3.2654,3.2641,3.265,3.2652,3.2654,3.2657,3.2585,3.2656,3.2656,3.2655,3.2655,3.2655,0,3.2649,3.2647,3.2658,3.2663,3.2672,3.2655,3.2658,3.2667,3.268,3.2682,3.269,3.2704,3.2715,3.2707,3.2716,3.2727,3.2718,3.2729,3.2727,3.2727,3.267,3.2663,3.2736,3.2736,3.2736,3.2736,3.2736,3.2736,3.2689,3.2713,3.2705,3.2729,3.2727,3.2742,3.2745,3.2748,3.2749,3.2766,3.2774,3.277,3.2767,3.2775,3.2784,3.2781,3.2785,3.2799,3.2793,3.2739,3.2731,3.2724,3.2717,3.28,3.28,3.2849,3.285,3.285]}]]